This is the latest recevied weather packets stored in our database for station/object IK2ILW-6. If no packets are shown the sender has not sent any weather packets the latest 10 day(s).
| Time | Temp. | Humidity | Pressure | Rain* | Wind** | Luminosity | Snow |
|---|---|---|---|---|---|---|---|
| 1777634185 | 6.11° C | 77% | 1027 hPa | 0 mm | - | 904 W/m² | - |
| 1777633890 | 6.11° C | 82% | 1026.9 hPa | 0 mm | - | 905 W/m² | - |
| 1777633596 | 5° C | 83% | 1026.9 hPa | 0 mm | - | 900 W/m² | - |
| 1777633301 | 5° C | 80% | 1026.9 hPa | 0 mm | - | 905 W/m² | - |
| 1777632986 | 5.56° C | 80% | 1027 hPa | 0 mm | - | 900 W/m² | - |
| 1777632690 | 5.56° C | 78% | 1027 hPa | 0 mm | - | 896 W/m² | - |
| 1777632395 | 5° C | 83% | 1027 hPa | 0 mm | - | 891 W/m² | - |
| 1777632101 | 5° C | 83% | 1027 hPa | 0 mm | - | 937 W/m² | - |
| 1777631787 | 5° C | 79% | 1026.9 hPa | 0 mm | - | 900 W/m² | - |
| 1777631492 | 5° C | 80% | 1026.9 hPa | 0 mm | - | 902 W/m² | - |
| 1777631194 | 5° C | 82% | 1026.9 hPa | 0 mm | - | 788 W/m² | - |
| 1777630898 | 4.44° C | 80% | 1026.9 hPa | 0 mm | - | 893 W/m² | - |
| 1777630584 | 5° C | 80% | 1026.9 hPa | 0 mm | - | 338 W/m² | - |
| 1777630289 | 4.44° C | 84% | 1026.9 hPa | 0 mm | - | 877 W/m² | - |
| 1777629994 | 4.44° C | 81% | 1026.8 hPa | 0 mm | - | 517 W/m² | - |
| 1777629700 | 3.89° C | 83% | 1026.7 hPa | 0 mm | - | 865 W/m² | - |
| 1777629386 | 4.44° C | 78% | 1026.7 hPa | 0 mm | - | 888 W/m² | - |
| 1777629091 | 4.44° C | 80% | 1026.7 hPa | 0 mm | - | 886 W/m² | - |
| 1777628796 | 5° C | 76% | 1026.7 hPa | 0 mm | - | 963 W/m² | - |
| 1777628501 | 5° C | 81% | 1026.7 hPa | 0 mm | - | 1234 W/m² | - |
| 1777628185 | 4.44° C | 83% | 1026.7 hPa | 0 mm | - | 1234 W/m² | - |
| 1777627894 | 3.89° C | 84% | 1026.6 hPa | 0 mm | - | 654 W/m² | - |
| 1777627599 | 3.33° C | 85% | 1026.6 hPa | 0 mm | - | 693 W/m² | - |
| 1777627285 | 3.33° C | 83% | 1026.6 hPa | 0 mm | - | 606 W/m² | - |
| 1777626990 | 3.33° C | 84% | 1026.5 hPa | 0 mm | - | 693 W/m² | - |
* Rain latest hour (hover to see other rain measurements)
** Current wind speed in m/s (hover to see current wind gust speed)